HAZ981 ZGGG-CYVR

Flight info

Callsign HAZ981
Flight time N/A
Altitude 29100
Route LMN9 LMN G471 EGEDA/K0945S0840 G471 PLT/K0963S0890 A599 JTN G327 LAMEN/N0515F290 A593 SADLI Y590 BEDAR Y591 FUE/N0509F310 Y23 KASTE Y81 TASOT Y57 DOVIX OTR5 KALNA DCT KALIG DCT CUTEE/N0509F330 DCT CARTO DCT CHIPT DCT CHIKI DCT CURVS DCT CRYPT A342 CDB DCT 55N160W 54N150W/N0500F350 52N140W DCT NUDGE DCT POWOL CYPRS2
Aircraft B77W/H-SDE1E2E3FGHIJ2J3J4J5M1RWXY/LB1D1

Departure

Time 2026-05-04 20:55
Airport Guangzhou Baiyun International Airport (ZGGG)

Arrival

Time N/A
Airport Vancouver International Airport (CYVR)
Time Latitude Longitude Altitude Speed Heading
2026-05-04 20:44 23.38006 113.30135 56 ft 0 kts 194°
2026-05-04 20:49 23.38012 113.30137 56 ft 2 kts 193°
2026-05-04 20:49 23.38027 113.30139 56 ft 2 kts 179°
2026-05-04 20:49 23.38041 113.30138 56 ft 2 kts 166°
2026-05-04 20:50 23.38056 113.30133 56 ft 2 kts 154°
2026-05-04 20:50 23.38069 113.30125 56 ft 2 kts 142°
2026-05-04 20:50 23.38080 113.30114 56 ft 2 kts 130°
2026-05-04 20:50 23.38089 113.30100 56 ft 2 kts 118°
2026-05-04 20:51 23.38095 113.30086 56 ft 1 kts 106°
2026-05-04 20:51 23.38096 113.30081 56 ft 0 kts 104°
2026-05-04 20:52 23.38095 113.30084 56 ft 3 kts 103°
2026-05-04 20:52 23.38075 113.30177 56 ft 17 kts 104°
2026-05-04 20:53 23.38030 113.30248 56 ft 8 kts 177°
2026-05-04 20:53 23.37926 113.30229 56 ft 25 kts 191°
2026-05-04 20:53 23.37763 113.30203 56 ft 20 kts 168°
2026-05-04 20:53 23.37657 113.30266 56 ft 14 kts 122°
2026-05-04 20:54 23.37625 113.30369 56 ft 18 kts 109°
2026-05-04 20:54 23.37613 113.30528 56 ft 21 kts 46°
2026-05-04 20:54 23.37849 113.30605 57 ft 62 kts 15°
2026-05-04 20:54 23.38486 113.30778 57 ft 124 kts 14°
2026-05-04 20:55 23.39523 113.31060 57 ft 180 kts 14°
2026-05-04 20:55 23.40880 113.31430 284 ft 211 kts 15°
2026-05-04 20:55 23.42291 113.31834 1043 ft 216 kts 17°
2026-05-04 20:55 23.43728 113.32272 1640 ft 220 kts 16°
2026-05-04 20:56 23.45260 113.32731 1910 ft 236 kts 16°
2026-05-04 20:56 23.46905 113.33220 2336 ft 245 kts 15°
2026-05-04 20:56 23.48586 113.33720 2672 ft 259 kts 15°
2026-05-04 20:56 23.50352 113.34246 3119 ft 267 kts 14°
2026-05-04 20:57 23.52160 113.34784 3672 ft 272 kts 15°
2026-05-04 20:57 23.53994 113.35331 4265 ft 274 kts 14°
2026-05-04 20:57 23.55874 113.35860 4809 ft 278 kts 10°
2026-05-04 20:57 23.57764 113.36243 5365 ft 281 kts
2026-05-04 20:58 23.59721 113.36610 5934 ft 284 kts
2026-05-04 20:58 23.61588 113.37305 6394 ft 292 kts 32°
2026-05-04 20:58 23.63068 113.38836 6853 ft 296 kts 59°
2026-05-04 20:58 23.63865 113.40907 7263 ft 303 kts 75°
2026-05-04 20:59 23.64365 113.43175 7605 ft 314 kts 78°
2026-05-04 20:59 23.64842 113.45532 8179 ft 316 kts 77°
2026-05-04 20:59 23.65323 113.47862 8729 ft 319 kts 77°
2026-05-04 20:59 23.65818 113.50221 9253 ft 323 kts 76°
2026-05-04 21:00 23.66326 113.52633 9790 ft 326 kts 76°
2026-05-04 21:00 23.66836 113.55050 10236 ft 333 kts 76°
2026-05-04 21:00 23.67361 113.57540 10448 ft 348 kts 76°
2026-05-04 21:00 23.67745 113.60220 10642 ft 364 kts 86°
2026-05-04 21:01 23.67732 113.63028 10830 ft 381 kts 92°
2026-05-04 21:01 23.67612 113.65993 11079 ft 396 kts 93°
2026-05-04 21:01 23.67487 113.69018 11340 ft 409 kts 93°
2026-05-04 21:01 23.67359 113.72149 11656 ft 421 kts 93°
2026-05-04 21:02 23.67228 113.75375 12143 ft 427 kts 93°
2026-05-04 21:02 23.67097 113.78625 12679 ft 432 kts 93°
2026-05-04 21:02 23.66965 113.81882 13192 ft 437 kts 93°
2026-05-04 21:02 23.66829 113.85239 13680 ft 442 kts 93°
2026-05-04 21:03 23.66693 113.88567 14247 ft 445 kts 93°
2026-05-04 21:03 23.66554 113.91956 14744 ft 449 kts 93°
2026-05-04 21:03 23.66414 113.95367 15208 ft 454 kts 93°
2026-05-04 21:03 23.66272 113.98820 15706 ft 458 kts 93°
2026-05-04 21:04 23.66128 114.02291 16201 ft 461 kts 93°
2026-05-04 21:04 23.65982 114.05793 16686 ft 464 kts 93°
2026-05-04 21:04 23.65835 114.09290 17124 ft 468 kts 94°
2026-05-04 21:04 23.65685 114.12852 17556 ft 472 kts 93°
2026-05-04 21:05 23.65534 114.16417 17994 ft 476 kts 94°
2026-05-04 21:05 23.65381 114.20010 18392 ft 480 kts 94°
2026-05-04 21:05 23.65425 114.23697 18789 ft 485 kts 84°
2026-05-04 21:05 23.65992 114.27307 19186 ft 489 kts 75°
2026-05-04 21:06 23.67079 114.30841 19538 ft 492 kts 65°
2026-05-04 21:06 23.68655 114.34141 19918 ft 494 kts 55°
2026-05-04 21:06 23.70695 114.37154 20284 ft 495 kts 46°
2026-05-04 21:06 23.73132 114.39773 20659 ft 494 kts 36°
2026-05-04 21:07 23.75882 114.42052 21075 ft 494 kts 32°
2026-05-04 21:07 23.78643 114.44239 21515 ft 496 kts 32°
2026-05-04 21:07 23.81441 114.46471 21901 ft 499 kts 32°
2026-05-04 21:07 23.84261 114.48739 22244 ft 503 kts 32°
2026-05-04 21:08 23.87061 114.51005 22612 ft 506 kts 32°
2026-05-04 21:08 23.89893 114.53308 23003 ft 508 kts 32°
2026-05-04 21:08 23.92748 114.55639 23385 ft 511 kts 32°
2026-05-04 21:08 23.95583 114.57960 23728 ft 513 kts 32°
2026-05-04 21:09 23.98449 114.60311 24075 ft 516 kts 32°
2026-05-04 21:09 24.01336 114.62684 24384 ft 520 kts 32°
2026-05-04 21:09 24.04251 114.65083 24723 ft 523 kts 32°
2026-05-04 21:09 24.07157 114.67477 24990 ft 528 kts 33°
2026-05-04 21:10 24.10075 114.69885 25246 ft 532 kts 32°
2026-05-04 21:10 24.13058 114.72348 25565 ft 534 kts 32°
2026-05-04 21:10 24.16031 114.74806 25895 ft 537 kts 32°
2026-05-04 21:10 24.19008 114.77268 26181 ft 540 kts 32°
2026-05-04 21:11 24.22035 114.79774 26435 ft 544 kts 32°
2026-05-04 21:11 24.25101 114.82220 26695 ft 544 kts 27°
2026-05-04 21:11 24.28370 114.84221 26990 ft 539 kts 19°
2026-05-04 21:11 24.31856 114.85700 27302 ft 533 kts 10°
2026-05-04 21:12 24.35437 114.86713 27615 ft 531 kts
2026-05-04 21:12 24.39053 114.87624 27933 ft 532 kts
2026-05-04 21:12 24.42637 114.88517 28240 ft 534 kts
2026-05-04 21:12 24.46275 114.89422 28624 ft 534 kts
2026-05-04 21:13 24.49893 114.90322 29055 ft 533 kts
2026-05-04 21:13 24.53530 114.91225 29129 ft 534 kts
2026-05-04 21:13 24.60743 114.93021 29142 ft 528 kts
2026-05-04 21:14 24.67948 114.94802 29141 ft 532 kts
2026-05-04 21:14 24.75152 114.96586 29136 ft 529 kts
2026-05-04 21:15 24.82340 114.98343 29142 ft 530 kts
2026-05-04 21:15 24.89548 115.00095 29137 ft 530 kts
2026-05-04 21:16 24.96768 115.01854 29147 ft 527 kts
2026-05-04 21:16 25.03918 115.03598 29137 ft 525 kts
2026-05-04 21:17 25.11071 115.05344 29137 ft 528 kts
2026-05-04 21:17 25.18253 115.07100 29129 ft 528 kts
2026-05-04 21:18 25.25484 115.08870 29131 ft 528 kts
2026-05-04 21:18 25.32652 115.09723 29129 ft 510 kts 349°
2026-05-04 21:19 25.36152 115.09305 29129 ft 499 kts 341°
2026-05-04 21:19 25.39494 115.08353 29131 ft 491 kts 333°
2026-05-04 21:19 25.45709 115.05444 29121 ft 481 kts 328°
2026-05-04 21:20 25.51793 115.02387 29126 ft 482 kts 328°
2026-05-04 21:20 25.57875 114.99295 29130 ft 480 kts 328°
2026-05-04 21:21 25.63967 114.96177 29145 ft 481 kts 328°
2026-05-04 21:21 25.70310 114.93685 29135 ft 495 kts 341°
2026-05-04 21:22 25.73772 114.93160 29135 ft 506 kts 349°
2026-05-04 21:22 25.77307 114.93188 29136 ft 515 kts 357°
2026-05-04 21:22 25.84404 114.94994 29137 ft 532 kts 15°
2026-05-04 21:23 25.87813 114.96807 29139 ft 544 kts 24°
2026-05-04 21:23 25.90945 114.99176 29132 ft 550 kts 33°
2026-05-04 21:23 25.96345 115.05272 29135 ft 560 kts 44°
2026-05-04 21:24 26.01542 115.11705 29140 ft 559 kts 43°
2026-05-04 21:24 26.06820 115.18138 29139 ft 561 kts 43°
2026-05-04 21:25 26.12084 115.24499 29135 ft 563 kts 43°
2026-05-04 21:25 26.17391 115.30884 29133 ft 562 kts 42°
2026-05-04 21:26 26.22714 115.37276 29140 ft 562 kts 42°
2026-05-04 21:26 26.28018 115.43641 29139 ft 563 kts 42°
2026-05-04 21:27 26.33336 115.50024 29154 ft 564 kts 42°
2026-05-04 21:27 26.38695 115.56464 29150 ft 566 kts 42°
2026-05-04 21:28 26.44036 115.62888 29154 ft 566 kts 42°
2026-05-04 21:28 26.49387 115.69333 29124 ft 567 kts 43°
2026-05-04 21:29 26.54725 115.75771 29140 ft 568 kts 43°
2026-05-04 21:29 26.60100 115.82262 29149 ft 567 kts 43°
2026-05-04 21:30 26.65440 115.88722 29146 ft 568 kts 43°
2026-05-04 21:30 26.70824 115.95243 29142 ft 569 kts 43°
2026-05-04 21:31 26.78835 116.04964 29157 ft 570 kts 43°
2026-05-04 21:32 26.84184 116.11468 29155 ft 568 kts 43°
2026-05-04 21:32 26.89526 116.17972 29165 ft 569 kts 43°
2026-05-04 21:33 26.94874 116.24468 29170 ft 568 kts 42°
2026-05-04 21:33 27.00266 116.30959 29161 ft 569 kts 43°
2026-05-04 21:34 27.05678 116.37486 29167 ft 570 kts 42°
2026-05-04 21:34 27.11046 116.43973 29164 ft 570 kts 42°
2026-05-04 21:35 27.16428 116.50488 29158 ft 571 kts 42°
2026-05-04 21:35 27.21835 116.57036 29158 ft 571 kts 41°
2026-05-04 21:36 27.27352 116.63460 29158 ft 569 kts 41°
2026-05-04 21:36 27.32860 116.69856 29144 ft 570 kts 41°
2026-05-04 21:37 27.38388 116.76293 29138 ft 572 kts 41°
2026-05-04 21:37 27.43888 116.82715 29143 ft 572 kts 41°
2026-05-04 21:38 27.49418 116.89182 29149 ft 574 kts 41°
2026-05-04 21:38 27.54930 116.95609 29168 ft 574 kts 41°
2026-05-04 21:39 27.60508 117.02049 29175 ft 574 kts 41°
2026-05-04 21:39 27.66068 117.08480 29172 ft 573 kts 41°
2026-05-04 21:40 27.71625 117.14922 29173 ft 573 kts 41°
2026-05-04 21:40 27.77186 117.21377 29176 ft 575 kts 41°
2026-05-04 21:41 27.82740 117.27837 29188 ft 575 kts 41°
2026-05-04 21:41 27.88326 117.34344 29192 ft 577 kts 41°
2026-05-04 21:42 27.93904 117.40853 29185 ft 576 kts 41°
2026-05-04 21:42 27.99451 117.47336 29174 ft 577 kts 41°
2026-05-04 21:43 28.05022 117.53857 29175 ft 577 kts 41°
2026-05-04 21:43 28.10591 117.60385 29178 ft 576 kts 41°
2026-05-04 21:44 28.16160 117.66921 29158 ft 578 kts 41°
2026-05-04 21:44 28.21742 117.73484 29141 ft 578 kts 41°
2026-05-04 21:45 28.27300 117.80028 29149 ft 579 kts 41°
2026-05-04 21:45 28.32874 117.86603 29148 ft 577 kts 41°
2026-05-04 21:46 28.38454 117.93193 29150 ft 580 kts 41°
2026-05-04 21:46 28.44006 117.99812 29150 ft 581 kts 43°
2026-05-04 21:47 28.49477 118.06552 29151 ft 580 kts 43°
2026-05-04 21:47 28.54972 118.13332 29164 ft 581 kts 43°
2026-05-04 21:48 28.60435 118.20076 29176 ft 581 kts 43°
2026-05-04 21:48 28.65887 118.26815 29178 ft 581 kts 43°
2026-05-04 21:49 28.71366 118.33595 29171 ft 583 kts 43°
2026-05-04 21:49 28.76827 118.40364 29175 ft 582 kts 43°
2026-05-04 21:50 28.82289 118.47145 29181 ft 581 kts 43°
2026-05-04 21:50 28.87774 118.53964 29182 ft 583 kts 43°
2026-05-04 21:51 28.93243 118.60776 29181 ft 582 kts 43°
2026-05-04 21:51 28.98698 118.67580 29160 ft 584 kts 44°
2026-05-04 21:52 29.04171 118.74419 29163 ft 583 kts 44°
2026-05-04 21:52 29.09613 118.81233 29161 ft 581 kts 44°
2026-05-04 21:53 29.15070 118.88073 29164 ft 583 kts 44°
2026-05-04 21:53 29.20520 118.94919 29166 ft 580 kts 44°
2026-05-04 21:54 29.25946 119.01746 29164 ft 581 kts 43°
2026-05-04 21:54 29.31362 119.08580 29165 ft 579 kts 44°
2026-05-04 21:55 29.36749 119.15389 29167 ft 578 kts 44°
2026-05-04 21:55 29.42156 119.22246 29166 ft 578 kts 44°
2026-05-04 21:56 29.47520 119.29063 29177 ft 579 kts 44°
2026-05-04 21:56 29.52886 119.35895 29172 ft 577 kts 44°
2026-05-04 21:57 29.58272 119.42756 29177 ft 577 kts 44°
2026-05-04 21:57 29.63622 119.49576 29186 ft 578 kts 44°
2026-05-04 21:58 29.68972 119.56470 29183 ft 576 kts 44°
2026-05-04 21:58 29.74339 119.63302 29187 ft 573 kts 39°
2026-05-04 21:59 29.80585 119.68793 29182 ft 561 kts 25°
2026-05-04 21:59 29.87324 119.73360 29172 ft 560 kts 24°
2026-05-04 22:00 29.93997 119.77853 29159 ft 559 kts 24°
2026-05-04 22:00 30.00745 119.82400 29156 ft 557 kts 24°
2026-05-04 22:01 30.07422 119.86905 29164 ft 560 kts 24°
2026-05-04 22:01 30.14100 119.91420 29151 ft 555 kts 24°
2026-05-04 22:02 30.20817 119.95964 29148 ft 556 kts 24°
2026-05-04 22:02 30.27453 120.00463 29146 ft 553 kts 25°
2026-05-04 22:03 30.34111 120.04983 29156 ft 554 kts 25°
2026-05-04 22:03 30.40739 120.09491 29144 ft 550 kts 25°
2026-05-04 22:04 30.47346 120.13990 29144 ft 551 kts 25°
2026-05-04 22:04 30.53953 120.18498 29144 ft 548 kts 25°
2026-05-04 22:05 30.60469 120.22953 29142 ft 546 kts 25°
2026-05-04 22:05 30.67011 120.27432 29143 ft 546 kts 25°
2026-05-04 22:06 30.73548 120.31913 29142 ft 545 kts 25°
2026-05-04 22:06 30.80098 120.36413 29142 ft 545 kts 26°
2026-05-04 22:07 30.86068 120.41921 29140 ft 554 kts 43°
2026-05-04 22:07 30.90567 120.49157 29135 ft 558 kts 60°
2026-05-04 22:08 30.93349 120.57625 29148 ft 561 kts 73°
2026-05-04 22:08 30.95455 120.66292 29146 ft 559 kts 75°
2026-05-04 22:09 30.97571 120.75022 29138 ft 562 kts 74°
2026-05-04 22:09 30.99707 120.83755 29155 ft 562 kts 74°
2026-05-04 22:10 31.01841 120.92463 29150 ft 560 kts 74°
2026-05-04 22:10 31.03970 121.01175 29146 ft 560 kts 74°
2026-05-04 22:11 31.06094 121.09883 29163 ft 560 kts 74°
2026-05-04 22:11 31.08244 121.18599 29170 ft 562 kts 73°
2026-05-04 22:12 31.10517 121.27293 29173 ft 560 kts 74°
2026-05-04 22:12 31.11630 121.36214 29160 ft 559 kts 91°
2026-05-04 22:13 31.10863 121.45186 29162 ft 558 kts 101°
2026-05-04 22:13 31.09679 121.54127 29160 ft 557 kts 101°
2026-05-04 22:14 31.08491 121.63000 29160 ft 558 kts 101°
2026-05-04 22:14 31.07287 121.71944 29144 ft 559 kts 102°
2026-05-04 22:15 31.06078 121.80867 29154 ft 560 kts 102°
2026-05-04 22:15 31.04863 121.89786 29151 ft 560 kts 102°
2026-05-04 22:16 31.03629 121.98795 29161 ft 563 kts 102°
2026-05-04 22:16 31.02395 122.07761 29151 ft 563 kts 102°
2026-05-04 22:17 31.01145 122.16788 29167 ft 563 kts 102°
2026-05-04 22:17 31.00051 122.25768 29155 ft 570 kts 95°
2026-05-04 22:18 30.99972 122.35003 29147 ft 569 kts 92°
2026-05-04 22:18 30.99982 122.44273 29186 ft 574 kts 91°
2026-05-04 22:19 30.99994 122.53497 29158 ft 570 kts 92°
2026-05-04 22:19 30.99997 122.62763 29194 ft 574 kts 92°
2026-05-04 22:20 31.00002 122.71986 29177 ft 573 kts 92°
2026-05-04 22:20 31.00010 122.81271 29168 ft 574 kts 92°
2026-05-04 22:21 31.00058 122.90589 29189 ft 579 kts 88°
2026-05-04 22:21 31.01530 122.99747 29188 ft 580 kts 71°
2026-05-04 22:22 31.04992 123.08179 29201 ft 576 kts 54°
2026-05-04 22:22 31.09609 123.15784 29193 ft 573 kts 51°
2026-05-04 22:23 31.14243 123.23299 29221 ft 572 kts 51°
2026-05-04 22:23 31.18877 123.30849 29199 ft 573 kts 51°
2026-05-04 22:24 31.23483 123.38386 29236 ft 573 kts 51°
2026-05-04 22:24 31.28086 123.45941 29208 ft 569 kts 51°
2026-05-04 22:25 31.32680 123.53497 29223 ft 573 kts 51°
2026-05-04 22:25 31.37274 123.61022 29225 ft 566 kts 51°
2026-05-04 22:26 31.41904 123.68591 29225 ft 569 kts 52°
2026-05-04 22:26 31.46452 123.76047 29203 ft 567 kts 52°
2026-05-04 22:27 31.51047 123.83592 29216 ft 566 kts 52°
2026-05-04 22:27 31.55612 123.91107 29222 ft 568 kts 52°
2026-05-04 22:28 31.59929 123.98812 29215 ft 568 kts 61°
2026-05-04 22:28 31.62649 124.07457 29235 ft 568 kts 75°
2026-05-04 22:29 31.64680 124.16460 29227 ft 568 kts 75°
2026-05-04 22:29 31.66675 124.25413 29229 ft 567 kts 76°
2026-05-04 22:30 31.68658 124.34347 29234 ft 569 kts 75°
2026-05-04 22:30 31.70649 124.43353 29230 ft 568 kts 75°
2026-05-04 22:31 31.72624 124.52322 29269 ft 571 kts 75°
2026-05-04 22:31 31.74581 124.61240 29246 ft 570 kts 75°
2026-05-04 22:32 31.76556 124.70273 29252 ft 568 kts 76°
2026-05-04 22:32 31.78511 124.79251 29235 ft 569 kts 76°
2026-05-04 22:33 31.80474 124.88293 29251 ft 569 kts 76°
2026-05-04 22:33 31.82090 124.97351 29254 ft 567 kts 86°
2026-05-04 22:34 31.81842 125.06506 29262 ft 561 kts 102°
2026-05-04 22:34 31.80446 125.15496 29250 ft 561 kts 104°
2026-05-04 22:35 31.78985 125.24500 29269 ft 562 kts 104°
2026-05-04 22:35 31.77519 125.33452 29266 ft 561 kts 104°
2026-05-04 22:36 31.76034 125.42458 29261 ft 564 kts 104°
2026-05-04 22:36 31.74528 125.51538 29272 ft 565 kts 104°
2026-05-04 22:37 31.73075 125.60513 29269 ft 567 kts 101°
2026-05-04 22:37 31.73010 125.69780 29254 ft 573 kts 84°
2026-05-04 22:38 31.74769 125.78951 29255 ft 576 kts 76°
2026-05-04 22:38 31.76811 125.88020 29245 ft 574 kts 76°
2026-05-04 22:39 31.78826 125.97064 29255 ft 575 kts 76°
2026-05-04 22:39 31.80822 126.06130 29265 ft 575 kts 76°
2026-05-04 22:40 31.82819 126.15263 29268 ft 576 kts 76°
2026-05-04 22:40 31.84789 126.24318 29264 ft 575 kts 76°
2026-05-04 22:41 31.86756 126.33408 29261 ft 575 kts 76°
2026-05-04 22:41 31.88723 126.42527 29264 ft 574 kts 76°
2026-05-04 22:42 31.90683 126.51615 29260 ft 575 kts 76°
2026-05-04 22:42 31.92697 126.60712 29266 ft 576 kts 76°
2026-05-04 22:43 31.94701 126.69792 29244 ft 574 kts 76°
2026-05-04 22:43 31.96703 126.78906 29269 ft 577 kts 76°
2026-05-04 22:44 31.98693 126.88004 29262 ft 576 kts 76°
2026-05-04 22:44 32.00686 126.97148 29263 ft 576 kts 76°
2026-05-04 22:45 32.02658 127.06237 29259 ft 575 kts 76°
2026-05-04 22:45 32.06704 127.19514 29267 ft 576 kts 65°
2026-05-04 22:46 32.09971 127.28152 29275 ft 577 kts 65°
2026-05-04 22:46 32.13224 127.36784 29265 ft 576 kts 65°
2026-05-04 22:47 32.16491 127.45480 29264 ft 577 kts 65°
2026-05-04 22:47 32.19733 127.54138 29267 ft 577 kts 65°
2026-05-04 22:48 32.22963 127.62788 29268 ft 577 kts 65°
2026-05-04 22:48 32.26200 127.71483 29254 ft 576 kts 65°
2026-05-04 22:49 32.29423 127.80163 29255 ft 577 kts 65°
2026-05-04 22:49 32.32624 127.88807 29257 ft 574 kts 65°
2026-05-04 22:50 32.35835 127.97496 29261 ft 575 kts 65°
2026-05-04 22:50 32.39032 128.06174 29249 ft 577 kts 65°
2026-05-04 22:51 32.42238 128.14897 29267 ft 577 kts 65°
2026-05-04 22:51 32.45446 128.23650 29264 ft 578 kts 65°
2026-05-04 22:52 32.48614 128.32314 29254 ft 576 kts 65°
2026-05-04 22:52 32.51804 128.41063 29255 ft 576 kts 65°
2026-05-04 22:53 32.54976 128.49782 29264 ft 576 kts 65°
2026-05-04 22:53 32.58136 128.58493 29270 ft 576 kts 65°
2026-05-04 22:54 32.61266 128.67145 29249 ft 576 kts 66°
2026-05-04 22:54 32.64424 128.75896 29250 ft 576 kts 66°
2026-05-04 22:55 32.67249 128.84781 29256 ft 577 kts 75°
2026-05-04 22:55 32.69199 128.94034 29253 ft 576 kts 77°
2026-05-04 22:56 32.71085 129.03220 29261 ft 578 kts 77°
2026-05-04 22:56 32.72979 129.12491 29269 ft 577 kts 77°
2026-05-04 22:57 32.74860 129.21739 29276 ft 575 kts 77°
2026-05-04 22:57 32.76719 129.30917 29270 ft 578 kts 77°
2026-05-04 22:58 32.78587 129.40173 29280 ft 576 kts 77°
2026-05-04 22:58 32.80442 129.49409 29289 ft 576 kts 77°
2026-05-04 22:59 32.82296 129.58673 29278 ft 578 kts 77°
2026-05-04 22:59 32.84151 129.67981 29270 ft 579 kts 78°
2026-05-04 23:00 32.85684 129.77341 29272 ft 577 kts 82°
2026-05-04 23:00 32.87001 129.86714 29279 ft 578 kts 82°
2026-05-04 23:01 32.88337 129.96147 29269 ft 579 kts 82°
2026-05-04 23:01 32.89677 130.05579 29275 ft 580 kts 82°
2026-05-04 23:02 32.91011 130.14967 29267 ft 579 kts 82°
2026-05-04 23:02 32.92346 130.24391 29253 ft 578 kts 82°
2026-05-04 23:03 32.93684 130.33874 29270 ft 580 kts 82°
2026-05-04 23:03 32.95003 130.43262 29264 ft 579 kts 82°
2026-05-04 23:04 32.96324 130.52713 29271 ft 580 kts 82°
2026-05-04 23:04 32.97642 130.62196 29278 ft 582 kts 82°
2026-05-04 23:05 32.98946 130.71625 29271 ft 581 kts 82°
2026-05-04 23:05 33.00254 130.81143 29276 ft 582 kts 83°
2026-05-04 23:06 33.01553 130.90645 29270 ft 584 kts 83°
2026-05-04 23:06 33.02839 131.00108 29267 ft 582 kts 82°
2026-05-04 23:07 33.04122 131.09605 29264 ft 582 kts 83°
2026-05-04 23:07 33.05399 131.19112 29265 ft 581 kts 83°
2026-05-04 23:08 33.06672 131.28650 29278 ft 583 kts 83°
2026-05-04 23:08 33.07935 131.38167 29284 ft 584 kts 83°
2026-05-04 23:09 33.09192 131.47702 29280 ft 582 kts 83°
2026-05-04 23:09 33.10430 131.57152 29276 ft 581 kts 83°
2026-05-04 23:10 33.11669 131.66669 29264 ft 583 kts 83°
2026-05-04 23:10 33.12909 131.76254 29259 ft 583 kts 83°
2026-05-04 23:11 33.14131 131.85754 29270 ft 584 kts 83°
2026-05-04 23:11 33.15353 131.95320 29261 ft 583 kts 83°
2026-05-04 23:12 33.16567 132.04875 29278 ft 584 kts 84°
2026-05-04 23:12 33.17780 132.14484 29279 ft 586 kts 84°
2026-05-04 23:13 33.18980 132.24052 29278 ft 588 kts 83°
2026-05-04 23:13 33.20182 132.33688 29271 ft 587 kts 84°
2026-05-04 23:14 33.21377 132.43341 29284 ft 590 kts 83°
2026-05-04 23:14 33.22564 132.52986 29281 ft 592 kts 84°
2026-05-04 23:15 33.23750 132.62680 29287 ft 590 kts 83°
2026-05-04 23:15 33.24930 132.72395 29260 ft 590 kts 84°
2026-05-04 23:16 33.26100 132.82091 29269 ft 593 kts 84°
2026-05-04 23:16 33.27268 132.91838 29249 ft 592 kts 84°
2026-05-04 23:17 33.28425 133.01559 29263 ft 594 kts 84°
2026-05-04 23:17 33.29578 133.11316 29277 ft 594 kts 84°
2026-05-04 23:18 33.30724 133.21092 29276 ft 597 kts 84°
2026-05-04 23:18 33.31862 133.30861 29273 ft 596 kts 84°
2026-05-04 23:19 33.32995 133.40654 29274 ft 597 kts 84°
2026-05-04 23:19 33.34120 133.50456 29286 ft 596 kts 84°
2026-05-04 23:20 33.35239 133.60277 29283 ft 597 kts 84°
2026-05-04 23:20 33.36354 133.70120 29269 ft 595 kts 85°
2026-05-04 23:21 33.37456 133.79929 29265 ft 597 kts 85°
2026-05-04 23:21 33.38549 133.89726 29266 ft 599 kts 85°
2026-05-04 23:22 33.39642 133.99600 29266 ft 599 kts 85°
2026-05-04 23:22 33.40726 134.09457 29274 ft 599 kts 85°
2026-05-04 23:23 33.41794 134.19246 29265 ft 597 kts 85°
2026-05-04 23:23 33.42860 134.29092 29269 ft 597 kts 85°
2026-05-04 23:24 33.43921 134.38960 29270 ft 597 kts 85°
2026-05-04 23:24 33.44975 134.48845 29278 ft 600 kts 85°
2026-05-04 23:25 33.46014 134.58661 29285 ft 598 kts 85°
2026-05-04 23:25 33.47052 134.68550 29278 ft 598 kts 86°
2026-05-04 23:26 33.48077 134.78389 29262 ft 600 kts 86°
2026-05-04 23:26 33.49095 134.88240 29255 ft 599 kts 86°
2026-05-04 23:27 33.50111 134.98135 29279 ft 598 kts 85°
2026-05-04 23:27 33.51116 135.07991 29248 ft 600 kts 85°
2026-05-04 23:28 33.52117 135.17891 29273 ft 600 kts 85°
2026-05-04 23:28 33.53116 135.27834 29260 ft 600 kts 86°
2026-05-04 23:29 33.54102 135.37735 29281 ft 601 kts 86°
2026-05-04 23:29 33.55082 135.47659 29285 ft 602 kts 86°
2026-05-04 23:30 33.56054 135.57579 29266 ft 601 kts 86°
2026-05-04 23:30 33.57021 135.67535 29283 ft 602 kts 86°
2026-05-04 23:31 33.57978 135.77475 29244 ft 602 kts 87°
2026-05-04 23:31 33.58928 135.87430 29254 ft 603 kts 87°
2026-05-04 23:32 33.59871 135.97391 29264 ft 605 kts 86°
2026-05-04 23:32 33.60809 136.07382 29252 ft 602 kts 87°
2026-05-04 23:33 33.61736 136.17366 29254 ft 606 kts 87°
2026-05-04 23:33 33.62659 136.27361 29270 ft 603 kts 87°
2026-05-04 23:34 33.63569 136.37329 29259 ft 605 kts 87°
2026-05-04 23:34 33.64477 136.47369 29261 ft 606 kts 86°
2026-05-04 23:35 33.65376 136.57384 29259 ft 604 kts 87°
2026-05-04 23:35 33.66267 136.67407 29262 ft 606 kts 88°
2026-05-04 23:36 33.67149 136.77431 29248 ft 608 kts 88°
2026-05-04 23:36 33.68026 136.87480 29253 ft 607 kts 87°
2026-05-04 23:37 33.68895 136.97537 29261 ft 608 kts 88°
2026-05-04 23:37 33.69755 137.07587 29264 ft 609 kts 88°
2026-05-04 23:38 33.70421 137.17708 29251 ft 607 kts 92°
2026-05-04 23:38 33.70677 137.27727 29260 ft 605 kts 93°
2026-05-04 23:39 33.70938 137.37830 29275 ft 606 kts 92°
2026-05-04 23:39 33.71207 137.47859 29269 ft 604 kts 92°
2026-05-04 23:40 33.71476 137.57954 29262 ft 606 kts 92°
2026-05-04 23:40 33.71743 137.68027 29261 ft 607 kts 93°
2026-05-04 23:41 33.72007 137.78131 29264 ft 604 kts 93°
2026-05-04 23:41 33.72261 137.88188 29249 ft 607 kts 92°
2026-05-04 23:42 33.72511 137.98236 29266 ft 601 kts 93°
2026-05-04 23:42 33.72751 138.08292 29257 ft 609 kts 93°
2026-05-04 23:43 33.72986 138.18417 29266 ft 606 kts 92°
2026-05-04 23:43 33.73212 138.28436 29271 ft 601 kts 93°
2026-05-04 23:44 33.73428 138.38521 29271 ft 603 kts 94°
2026-05-04 23:44 33.74403 138.48576 29268 ft 611 kts 77°
2026-05-04 23:45 33.77403 138.58083 29288 ft 617 kts 61°
2026-05-04 23:45 33.81814 138.66907 29261 ft 613 kts 56°
2026-05-04 23:46 33.86263 138.75581 29252 ft 614 kts 56°
2026-05-04 23:46 33.90739 138.84386 29258 ft 615 kts 57°
2026-05-04 23:47 33.95174 138.93166 29260 ft 614 kts 57°
2026-05-04 23:47 33.99582 139.01932 29266 ft 614 kts 57°
2026-05-04 23:48 34.03999 139.10747 29274 ft 614 kts 57°
2026-05-04 23:48 34.08403 139.19569 29280 ft 616 kts 57°
2026-05-04 23:49 34.12809 139.28420 29262 ft 618 kts 58°
2026-05-04 23:49 34.17221 139.37303 29267 ft 617 kts 58°
2026-05-04 23:50 34.21610 139.46166 29284 ft 619 kts 58°
2026-05-04 23:50 34.25982 139.55017 29282 ft 614 kts 58°
2026-05-04 23:51 34.30369 139.63921 29282 ft 619 kts 57°
2026-05-04 23:51 34.34753 139.72841 29261 ft 621 kts 58°
2026-05-04 23:52 34.39142 139.81796 29266 ft 616 kts 58°
2026-05-04 23:52 34.43497 139.90701 29287 ft 620 kts 58°
2026-05-04 23:53 34.47900 139.99728 29292 ft 620 kts 59°
2026-05-04 23:53 34.52261 140.08694 29267 ft 618 kts 58°
2026-05-04 23:54 34.56611 140.17659 29276 ft 620 kts 58°
2026-05-04 23:54 34.60967 140.26659 29273 ft 621 kts 59°
2026-05-04 23:55 34.65323 140.35684 29279 ft 617 kts 58°
2026-05-04 23:56 34.71765 140.49162 29303 ft 620 kts 60°
2026-05-04 23:56 34.75964 140.58305 29301 ft 619 kts 60°
2026-05-04 23:57 34.80143 140.67429 29282 ft 617 kts 62°
2026-05-04 23:57 34.84337 140.76601 29274 ft 619 kts 62°
2026-05-04 23:58 34.88489 140.85698 29283 ft 621 kts 61°
2026-05-04 23:58 34.92646 140.94826 29279 ft 618 kts 63°
2026-05-04 23:59 34.96807 141.03986 29286 ft 622 kts 62°
2026-05-04 23:59 35.00978 141.13190 29286 ft 620 kts 62°
2026-05-05 00:00 35.05148 141.22417 29302 ft 620 kts 62°
2026-05-05 00:00 35.09296 141.31621 29298 ft 622 kts 62°
2026-05-05 00:01 35.13446 141.40852 29285 ft 622 kts 62°
2026-05-05 00:01 35.17581 141.50075 29281 ft 622 kts 62°
2026-05-05 00:02 35.21732 141.59358 29287 ft 624 kts 62°
2026-05-05 00:02 35.25876 141.68651 29270 ft 624 kts 63°
2026-05-05 00:03 35.30016 141.77960 29260 ft 623 kts 63°
2026-05-05 00:03 35.34149 141.87282 29272 ft 628 kts 63°
2026-05-05 00:04 35.38312 141.96695 29266 ft 627 kts 64°
2026-05-05 00:04 35.42452 142.06084 29277 ft 631 kts 63°
2026-05-05 00:05 35.46590 142.15492 29281 ft 630 kts 63°
2026-05-05 00:05 35.50734 142.24939 29278 ft 628 kts 64°
2026-05-05 00:06 35.54880 142.34421 29290 ft 630 kts 64°
2026-05-05 00:06 35.59007 142.43883 29291 ft 635 kts 63°
2026-05-05 00:07 35.63146 142.53403 29287 ft 631 kts 63°
2026-05-05 00:07 35.67274 142.62923 29276 ft 631 kts 63°
2026-05-05 00:08 35.71396 142.72455 29257 ft 634 kts 64°
2026-05-05 00:08 35.75496 142.81964 29254 ft 634 kts 64°
2026-05-05 00:09 35.79629 142.91577 29264 ft 634 kts 64°
2026-05-05 00:09 35.83751 143.01190 29268 ft 635 kts 65°
2026-05-05 00:10 35.87852 143.10788 29266 ft 638 kts 64°
2026-05-05 00:10 35.92372 143.20132 29270 ft 638 kts 53°
2026-05-05 00:11 35.98461 143.28024 29271 ft 634 kts 35°
2026-05-05 00:11 36.05496 143.34526 29282 ft 632 kts 31°
2026-05-05 00:12 36.12552 143.40920 29254 ft 629 kts 31°
2026-05-05 00:12 36.19595 143.47348 29257 ft 630 kts 32°
2026-05-05 00:13 36.26689 143.53865 29265 ft 631 kts 31°
2026-05-05 00:13 36.33734 143.60365 29273 ft 632 kts 31°
2026-05-05 00:14 36.40770 143.66878 29245 ft 634 kts 32°
2026-05-05 00:14 36.47790 143.73399 29244 ft 632 kts 32°
2026-05-05 00:15 36.54826 143.79952 29245 ft 635 kts 32°
2026-05-05 00:15 36.61925 143.86580 29244 ft 636 kts 32°
2026-05-05 00:16 36.68982 143.93185 29249 ft 639 kts 32°
2026-05-05 00:16 36.76042 143.99814 29254 ft 635 kts 32°
2026-05-05 00:17 36.83138 144.06488 29262 ft 641 kts 32°
2026-05-05 00:17 36.90217 144.13165 29261 ft 637 kts 33°
2026-05-05 00:18 36.96759 144.20570 29247 ft 641 kts 48°
2026-05-05 00:18 37.01812 144.29799 29265 ft 645 kts 64°
2026-05-05 00:19 37.04985 144.40048 29251 ft 633 kts 81°
2026-05-05 00:19 37.06540 144.50850 29257 ft 627 kts 87°
2026-05-05 00:20 37.07812 144.61517 29245 ft 621 kts 89°
2026-05-05 00:20 37.09069 144.72205 29212 ft 622 kts 89°
2026-05-05 00:21 37.10326 144.82976 29215 ft 621 kts 88°
2026-05-05 00:21 37.11559 144.93611 29204 ft 623 kts 89°
2026-05-05 00:22 37.12794 145.04347 29202 ft 619 kts 89°
2026-05-05 00:22 37.14006 145.14984 29193 ft 617 kts 89°
2026-05-05 00:23 37.15206 145.25629 29204 ft 624 kts 89°
2026-05-05 00:23 37.16407 145.36310 29192 ft 615 kts 89°
2026-05-05 00:24 37.17587 145.46945 29197 ft 621 kts 89°
2026-05-05 00:24 37.18764 145.57577 29198 ft 613 kts 89°
2026-05-05 00:24 37.19597 145.62823 29183 ft 625 kts 81°
2026-05-05 00:25 37.20945 145.67989 29177 ft 632 kts 73°
2026-05-05 00:25 37.25081 145.77740 29171 ft 636 kts 59°
2026-05-05 00:26 37.29807 145.87065 29165 ft 637 kts 59°
2026-05-05 00:26 37.34537 145.96462 29171 ft 636 kts 59°
2026-05-05 00:27 37.39256 146.05905 29169 ft 638 kts 60°
2026-05-05 00:27 37.43950 146.15356 29161 ft 642 kts 59°
2026-05-05 00:28 37.48646 146.24854 29173 ft 637 kts 60°
2026-05-05 00:28 37.53332 146.34374 29168 ft 642 kts 60°
2026-05-05 00:29 37.57997 146.43880 29168 ft 642 kts 60°
2026-05-05 00:29 37.62675 146.53444 29172 ft 640 kts 60°
2026-05-05 00:30 37.67335 146.63005 29165 ft 643 kts 59°
2026-05-05 00:30 37.71974 146.72546 29141 ft 640 kts 62°
2026-05-05 00:31 37.76611 146.82120 29149 ft 641 kts 60°
2026-05-05 00:31 37.81246 146.91713 29142 ft 642 kts 62°
2026-05-05 00:32 37.85889 147.01353 29146 ft 642 kts 61°
2026-05-05 00:32 37.90514 147.10983 29150 ft 642 kts 61°
2026-05-05 00:33 37.95122 147.20607 29150 ft 639 kts 62°
2026-05-05 00:33 37.99697 147.30190 29150 ft 636 kts 62°
2026-05-05 00:34 38.04246 147.39749 29145 ft 638 kts 61°
2026-05-05 00:34 38.08806 147.49355 29139 ft 632 kts 61°
2026-05-05 00:35 38.13331 147.58919 29119 ft 632 kts 62°
2026-05-05 00:35 38.17818 147.68430 29095 ft 630 kts 62°
2026-05-05 00:36 38.22306 147.77969 29100 ft 631 kts 62°
2026-05-05 00:36 38.26796 147.87543 29101 ft 630 kts 62°
2026-05-05 00:37 38.31251 147.97072 29096 ft 630 kts 62°
2026-05-05 00:37 38.35712 148.06641 29089 ft 628 kts 62°
2026-05-05 00:38 38.40156 148.16200 29088 ft 633 kts 62°
2026-05-05 00:38 38.44611 148.25810 29091 ft 631 kts 62°
2026-05-05 00:39 38.49081 148.35486 29082 ft 634 kts 62°
2026-05-05 00:39 38.53536 148.45155 29085 ft 631 kts 62°
2026-05-05 00:40 38.57981 148.54834 29070 ft 633 kts 62°
2026-05-05 00:40 38.62391 148.64464 29082 ft 632 kts 62°
2026-05-05 00:41 38.66824 148.74175 29051 ft 631 kts 63°
2026-05-05 00:41 38.71225 148.83844 29052 ft 633 kts 63°
2026-05-05 00:42 38.75645 148.93585 29047 ft 631 kts 63°
2026-05-05 00:42 38.80022 149.03259 29045 ft 632 kts 63°
2026-05-05 00:43 38.84413 149.12997 29047 ft 630 kts 63°
2026-05-05 00:43 38.88768 149.22684 29046 ft 630 kts 63°
2026-05-05 00:44 38.93130 149.32416 29050 ft 627 kts 63°
2026-05-05 00:44 38.97475 149.42139 29049 ft 627 kts 63°
2026-05-05 00:45 39.01804 149.51860 29056 ft 629 kts 63°
2026-05-05 00:45 39.06113 149.61562 29056 ft 628 kts 63°
2026-05-05 00:46 39.10409 149.71263 29036 ft 627 kts 64°
2026-05-05 00:46 39.14764 149.80966 29001 ft 628 kts 59°
2026-05-05 00:47 39.20273 149.89670 29019 ft 630 kts 47°
2026-05-05 00:47 39.26275 149.97920 29008 ft 631 kts 47°
2026-05-05 00:48 39.32239 150.06171 29005 ft 632 kts 46°
2026-05-05 00:48 39.38188 150.14456 29004 ft 631 kts 47°
2026-05-05 00:49 39.44133 150.22778 28998 ft 633 kts 47°
2026-05-05 00:49 39.50080 150.31139 28998 ft 631 kts 47°
2026-05-05 00:50 39.56009 150.39505 28991 ft 632 kts 47°
2026-05-05 00:50 39.61929 150.47884 28993 ft 631 kts 47°
2026-05-05 00:51 39.67852 150.56293 28978 ft 632 kts 47°
2026-05-05 00:51 39.73757 150.64702 28986 ft 634 kts 47°
2026-05-05 00:52 39.79666 150.73141 28954 ft 632 kts 48°
2026-05-05 00:52 39.85568 150.81593 28942 ft 632 kts 48°
2026-05-05 00:53 39.91488 150.90094 28941 ft 633 kts 47°
2026-05-05 00:53 39.97362 150.98555 28937 ft 633 kts 49°
2026-05-05 00:54 40.03269 151.07086 28947 ft 633 kts 48°
2026-05-05 00:54 40.09126 151.15569 28955 ft 633 kts 49°
2026-05-05 00:55 40.15019 151.24127 28941 ft 634 kts 47°
2026-05-05 00:55 40.20905 151.32700 28930 ft 636 kts 47°
2026-05-05 00:56 40.26757 151.41246 28937 ft 634 kts 47°
2026-05-05 00:56 40.32657 151.49886 28930 ft 637 kts 47°
2026-05-05 00:57 40.38534 151.58519 28930 ft 637 kts 48°
2026-05-05 00:57 40.44416 151.67183 28918 ft 636 kts 48°
2026-05-05 00:58 40.50279 151.75842 28910 ft 636 kts 48°
2026-05-05 00:58 40.56168 151.84566 28908 ft 639 kts 49°
2026-05-05 00:59 40.62056 151.93314 28908 ft 639 kts 49°
2026-05-05 00:59 40.67905 152.02029 28917 ft 640 kts 48°
2026-05-05 01:00 40.73784 152.10814 28918 ft 640 kts 49°
2026-05-05 01:00 40.79672 152.19636 28910 ft 641 kts 49°
2026-05-05 01:01 40.85509 152.28409 28917 ft 639 kts 48°
2026-05-05 01:01 40.91384 152.37265 28908 ft 641 kts 48°
2026-05-05 01:02 40.97236 152.46112 28908 ft 639 kts 48°
2026-05-05 01:02 41.03048 152.54923 28911 ft 641 kts 49°
2026-05-05 01:03 41.08904 152.63827 28914 ft 638 kts 48°
2026-05-05 01:03 41.14686 152.72647 28871 ft 636 kts 49°
2026-05-05 01:04 41.20472 152.81497 28873 ft 637 kts 49°
2026-05-05 01:04 41.29161 152.94836 28875 ft 634 kts 49°
2026-05-05 01:05 41.34911 153.03696 28861 ft 634 kts 50°
2026-05-05 01:05 41.40623 153.12523 28861 ft 636 kts 50°
2026-05-05 01:06 41.46377 153.21443 28859 ft 635 kts 49°
2026-05-05 01:06 41.52108 153.30351 28860 ft 637 kts 50°
2026-05-05 01:07 41.57877 153.39348 28864 ft 638 kts 49°
2026-05-05 01:07 41.63622 153.48332 28867 ft 638 kts 49°
2026-05-05 01:08 41.69356 153.57327 28873 ft 638 kts 49°
2026-05-05 01:08 41.75077 153.66328 28867 ft 636 kts 50°
2026-05-05 01:09 41.80795 153.75352 28850 ft 637 kts 50°
2026-05-05 01:09 41.86509 153.84396 28836 ft 637 kts 50°
2026-05-05 01:10 41.92244 153.93503 28837 ft 639 kts 49°
2026-05-05 01:10 41.97925 154.02550 28843 ft 636 kts 49°
2026-05-05 01:11 42.03607 154.11626 28851 ft 635 kts 49°
2026-05-05 01:11 42.09300 154.20747 28856 ft 635 kts 50°
2026-05-05 01:12 42.14960 154.29843 28826 ft 636 kts 50°
2026-05-05 01:12 42.20576 154.38896 28829 ft 633 kts 50°
2026-05-05 01:13 42.26214 154.48013 28829 ft 633 kts 50°
2026-05-05 01:13 42.31843 154.57146 28830 ft 633 kts 50°
2026-05-05 01:14 42.37452 154.66270 28832 ft 631 kts 51°
2026-05-05 01:14 42.43049 154.75404 28812 ft 633 kts 51°
2026-05-05 01:15 42.48624 154.84531 28813 ft 632 kts 51°
2026-05-05 01:15 42.54186 154.93665 28811 ft 633 kts 51°
2026-05-05 01:16 42.59759 155.02846 28805 ft 632 kts 51°
2026-05-05 01:16 42.65343 155.12071 28807 ft 632 kts 50°
2026-05-05 01:17 42.70865 155.21223 28804 ft 631 kts 51°
2026-05-05 01:17 42.76443 155.30498 28808 ft 631 kts 51°
2026-05-05 01:18 42.81965 155.39706 28816 ft 630 kts 51°
2026-05-05 01:18 42.87486 155.48944 28813 ft 632 kts 51°
2026-05-05 01:19 42.93008 155.58212 28815 ft 631 kts 51°
2026-05-05 01:19 42.98524 155.67500 28797 ft 632 kts 52°
2026-05-05 01:20 43.03930 155.76831 28790 ft 631 kts 52°
2026-05-05 01:20 43.09339 155.86247 28793 ft 631 kts 53°
2026-05-05 01:21 43.14740 155.95670 28767 ft 630 kts 53°
2026-05-05 01:21 43.20111 156.05069 28772 ft 631 kts 53°
2026-05-05 01:22 43.25488 156.14506 28775 ft 628 kts 52°
2026-05-05 01:22 43.30857 156.23956 28769 ft 629 kts 53°
2026-05-05 01:23 43.36221 156.33426 28770 ft 629 kts 53°
2026-05-05 01:23 43.41548 156.42864 28771 ft 627 kts 53°
2026-05-05 01:24 43.46874 156.52327 28768 ft 629 kts 52°
2026-05-05 01:24 43.52215 156.61848 28777 ft 627 kts 53°
2026-05-05 01:25 43.57504 156.71307 28754 ft 629 kts 53°
2026-05-05 01:25 43.62804 156.80817 28757 ft 625 kts 54°
2026-05-05 01:26 43.68109 156.90367 28760 ft 627 kts 54°
2026-05-05 01:26 43.73368 156.99864 28769 ft 625 kts 54°
2026-05-05 01:27 43.78614 157.09370 28773 ft 626 kts 54°
2026-05-05 01:27 43.83908 157.18994 28776 ft 627 kts 53°
2026-05-05 01:28 43.89180 157.28606 28761 ft 629 kts 54°
2026-05-05 01:28 43.94424 157.38203 28764 ft 628 kts 53°
2026-05-05 01:29 43.99700 157.47888 28764 ft 631 kts 53°
2026-05-05 01:29 44.04950 157.57558 28774 ft 626 kts 53°
2026-05-05 01:30 44.10193 157.67248 28746 ft 629 kts 54°
2026-05-05 01:30 44.15417 157.76936 28715 ft 629 kts 54°
2026-05-05 01:31 44.20664 157.86697 28717 ft 630 kts 54°
2026-05-05 01:31 44.25867 157.96410 28722 ft 629 kts 54°
2026-05-05 01:32 44.31087 158.06187 28728 ft 628 kts 53°
2026-05-05 01:32 44.36267 158.15922 28724 ft 628 kts 54°
2026-05-05 01:33 44.41470 158.25734 28725 ft 626 kts 54°
2026-05-05 01:33 44.46641 158.35519 28718 ft 627 kts 53°
2026-05-05 01:34 44.51796 158.45305 28724 ft 627 kts 53°
2026-05-05 01:34 44.56930 158.55087 28727 ft 626 kts 53°
2026-05-05 01:35 44.62062 158.64894 28742 ft 626 kts 53°
2026-05-05 01:35 44.67209 158.74767 28720 ft 625 kts 54°
2026-05-05 01:36 44.72300 158.84564 28718 ft 625 kts 53°
2026-05-05 01:36 44.77412 158.94438 28717 ft 622 kts 54°
2026-05-05 01:37 44.82486 159.04271 28719 ft 622 kts 53°
2026-05-05 01:37 44.87540 159.14098 28713 ft 623 kts 54°
2026-05-05 01:38 44.92593 159.23956 28719 ft 622 kts 54°
2026-05-05 01:38 44.97633 159.33824 28713 ft 622 kts 54°
2026-05-05 01:39 45.02683 159.43744 28719 ft 622 kts 53°
2026-05-05 01:39 45.07687 159.53609 28715 ft 621 kts 54°
2026-05-05 01:40 45.12701 159.63528 28695 ft 621 kts 53°
2026-05-05 01:40 45.17694 159.73441 28678 ft 620 kts 55°
2026-05-05 01:41 45.22696 159.83405 28677 ft 620 kts 54°
2026-05-05 01:41 45.27673 159.93353 28680 ft 621 kts 55°
2026-05-05 01:42 45.32627 160.03290 28681 ft 620 kts 55°
2026-05-05 01:42 45.37584 160.13269 28682 ft 621 kts 55°
2026-05-05 01:43 45.42556 160.23312 28682 ft 620 kts 55°
2026-05-05 01:43 45.47471 160.33276 28687 ft 619 kts 55°
2026-05-05 01:44 45.52409 160.43323 28692 ft 619 kts 55°
2026-05-05 01:44 45.57301 160.53311 28698 ft 618 kts 54°
2026-05-05 01:45 45.62212 160.63373 28698 ft 618 kts 55°
2026-05-05 01:45 45.67086 160.73393 28675 ft 619 kts 55°
2026-05-05 01:46 45.71984 160.83499 28678 ft 616 kts 56°
2026-05-05 01:46 45.76815 160.93504 28675 ft 615 kts 55°
2026-05-05 01:47 45.81680 161.03613 28677 ft 617 kts 55°
2026-05-05 01:47 45.86510 161.13687 28684 ft 615 kts 55°
2026-05-05 01:48 45.91340 161.23796 28681 ft 615 kts 55°
2026-05-05 01:48 45.96143 161.33884 28684 ft 616 kts 55°
2026-05-05 01:49 46.00936 161.43988 28697 ft 612 kts 55°
2026-05-05 01:49 46.05688 161.54044 28697 ft 613 kts 55°
2026-05-05 01:50 46.10470 161.64197 28700 ft 611 kts 55°
2026-05-05 01:50 46.15185 161.74245 28677 ft 609 kts 56°
2026-05-05 01:51 46.19933 161.84398 28679 ft 610 kts 56°
2026-05-05 01:51 46.24636 161.94492 28684 ft 608 kts 56°
2026-05-05 01:52 46.29317 162.04576 28683 ft 606 kts 56°
2026-05-05 01:52 46.33982 162.14661 28689 ft 606 kts 56°
2026-05-05 01:53 46.38634 162.24754 28701 ft 606 kts 55°
2026-05-05 01:53 46.43069 162.35126 28709 ft 604 kts 60°
2026-05-05 01:54 46.47225 162.45656 28705 ft 603 kts 60°
2026-05-05 01:54 46.51331 162.56131 28714 ft 602 kts 60°
2026-05-05 01:55 46.55461 162.66725 28715 ft 603 kts 61°
2026-05-05 01:55 46.59566 162.77301 28707 ft 601 kts 61°
2026-05-05 01:56 46.63650 162.87869 28705 ft 603 kts 61°
2026-05-05 01:56 46.67694 162.98378 28707 ft 601 kts 61°
2026-05-05 01:57 46.71759 163.08986 28713 ft 598 kts 60°
2026-05-05 01:57 46.75786 163.19533 28722 ft 598 kts 61°
2026-05-05 01:58 46.79815 163.30130 28736 ft 599 kts 60°
2026-05-05 01:58 46.83815 163.40691 28750 ft 598 kts 60°
2026-05-05 01:59 46.87833 163.51343 28751 ft 599 kts 60°
2026-05-05 01:59 46.91823 163.61961 28759 ft 597 kts 61°
2026-05-05 02:00 46.95780 163.72534 28769 ft 598 kts 62°
2026-05-05 02:00 46.99763 163.83218 28772 ft 598 kts 62°
2026-05-05 02:01 47.03727 163.93896 28773 ft 597 kts 61°
2026-05-05 02:01 47.07655 164.04518 28773 ft 598 kts 61°
2026-05-05 02:02 47.11607 164.15247 28768 ft 598 kts 61°
2026-05-05 02:02 47.15541 164.25970 28779 ft 598 kts 60°
2026-05-05 02:03 47.19444 164.36652 28795 ft 598 kts 61°
2026-05-05 02:03 47.23356 164.47398 28792 ft 598 kts 61°
2026-05-05 02:04 47.27244 164.58127 28798 ft 595 kts 60°
2026-05-05 02:04 47.31102 164.68814 28799 ft 595 kts 62°
2026-05-05 02:05 47.34971 164.79576 28801 ft 597 kts 61°
2026-05-05 02:05 47.38837 164.90372 28821 ft 598 kts 61°
2026-05-05 02:06 47.42694 165.01187 28838 ft 596 kts 61°
2026-05-05 02:06 47.46531 165.11993 28861 ft 596 kts 61°
2026-05-05 02:07 47.50356 165.22806 28862 ft 597 kts 61°
2026-05-05 02:07 47.54199 165.33716 28871 ft 596 kts 61°
2026-05-05 02:08 47.57996 165.44542 28877 ft 594 kts 61°
2026-05-05 02:08 47.61770 165.55344 28898 ft 597 kts 61°
2026-05-05 02:09 47.65581 165.66298 28893 ft 595 kts 62°
2026-05-05 02:09 47.69340 165.77150 28882 ft 596 kts 61°
2026-05-05 02:10 47.73117 165.88098 28890 ft 598 kts 61°
2026-05-05 02:10 47.76867 165.99016 28902 ft 596 kts 61°
2026-05-05 02:11 47.80623 166.09993 28913 ft 598 kts 61°
2026-05-05 02:11 47.84375 166.21008 28922 ft 594 kts 60°
2026-05-05 02:12 47.89956 166.37480 28942 ft 596 kts 60°
2026-05-05 02:13 47.93651 166.48442 28944 ft 597 kts 61°
2026-05-05 02:13 47.97349 166.59462 28965 ft 595 kts 60°
2026-05-05 02:14 48.01044 166.70519 28941 ft 596 kts 61°
2026-05-05 02:14 48.04715 166.81552 28951 ft 594 kts 61°
2026-05-05 02:15 48.08353 166.92532 28969 ft 594 kts 61°
2026-05-05 02:15 48.11976 167.03517 28965 ft 593 kts 61°
2026-05-05 02:16 48.15617 167.14601 28976 ft 593 kts 60°
2026-05-05 02:16 48.19207 167.25578 28985 ft 590 kts 61°
2026-05-05 02:17 48.22789 167.36580 28985 ft 588 kts 60°
2026-05-05 02:17 48.26334 167.47514 29000 ft 587 kts 60°
2026-05-05 02:18 48.29884 167.58507 29002 ft 588 kts 60°
2026-05-05 02:18 48.33416 167.69499 28992 ft 585 kts 61°
2026-05-05 02:19 48.36930 167.80479 29000 ft 584 kts 61°
2026-05-05 02:19 48.40427 167.91454 29003 ft 581 kts 61°
2026-05-05 02:20 48.43894 168.02380 29006 ft 582 kts 60°
2026-05-05 02:20 48.47348 168.13315 29021 ft 581 kts 60°
2026-05-05 02:21 48.50809 168.24316 29043 ft 583 kts 61°
2026-05-05 02:21 48.54245 168.35292 29040 ft 580 kts 60°
2026-05-05 02:22 48.57693 168.46352 29046 ft 583 kts 60°
2026-05-05 02:22 48.61109 168.57362 29056 ft 580 kts 60°
2026-05-05 02:23 48.64508 168.68358 29049 ft 583 kts 61°
2026-05-05 02:23 48.67892 168.79358 29050 ft 581 kts 60°
2026-05-05 02:24 48.72043 168.89667 29072 ft 572 kts 49°
2026-05-05 02:24 48.76595 168.99455 29077 ft 573 kts 49°
2026-05-05 02:25 48.81088 169.09349 29070 ft 572 kts 50°
2026-05-05 02:25 48.85550 169.19344 29072 ft 571 kts 50°
2026-05-05 02:26 48.89946 169.29306 29079 ft 571 kts 50°
2026-05-05 02:26 48.94338 169.39340 29085 ft 571 kts 50°
2026-05-05 02:27 48.98698 169.49365 29085 ft 570 kts 50°
2026-05-05 02:27 49.03079 169.59486 29094 ft 574 kts 50°
2026-05-05 02:28 49.07410 169.69544 29073 ft 572 kts 51°
2026-05-05 02:28 49.11737 169.79636 29082 ft 569 kts 51°
2026-05-05 02:29 49.16047 169.89726 29086 ft 569 kts 50°
2026-05-05 02:29 49.20343 169.99824 29086 ft 568 kts 50°
2026-05-05 02:30 49.24650 170.09982 29091 ft 571 kts 50°
2026-05-05 02:30 49.28920 170.20102 29098 ft 569 kts 50°
2026-05-05 02:31 49.33167 170.30202 29106 ft 569 kts 50°
2026-05-05 02:31 49.37451 170.40427 29116 ft 568 kts 50°
2026-05-05 02:32 49.41672 170.50543 29119 ft 565 kts 50°
2026-05-05 02:32 49.45914 170.60744 29120 ft 571 kts 50°
2026-05-05 02:33 49.50156 170.70991 29114 ft 565 kts 50°
2026-05-05 02:33 49.54371 170.81204 29117 ft 568 kts 50°
2026-05-05 02:34 49.58584 170.91457 29133 ft 569 kts 50°
2026-05-05 02:34 49.62776 171.01697 29135 ft 570 kts 50°
2026-05-05 02:35 49.66970 171.11987 29143 ft 567 kts 50°
2026-05-05 02:35 49.71154 171.22288 29153 ft 567 kts 50°
2026-05-05 02:36 49.75345 171.32646 29154 ft 568 kts 50°
2026-05-05 02:36 49.79493 171.42941 29160 ft 567 kts 49°
2026-05-05 02:37 49.83614 171.53210 29161 ft 563 kts 49°
2026-05-05 02:37 49.87722 171.63487 29159 ft 561 kts 49°
2026-05-05 02:38 49.91813 171.73755 29145 ft 562 kts 50°
2026-05-05 02:38 49.95901 171.84056 29152 ft 563 kts 50°
2026-05-05 02:39 49.99965 171.94347 29150 ft 558 kts 50°
2026-05-05 02:39 50.04032 172.04675 29159 ft 559 kts 50°
2026-05-05 02:40 50.08065 172.14963 29155 ft 558 kts 50°
2026-05-05 02:40 50.12040 172.25145 29168 ft 556 kts 50°
2026-05-05 02:41 50.16014 172.35359 29174 ft 552 kts 50°
2026-05-05 02:41 50.19989 172.45616 29179 ft 551 kts 50°
2026-05-05 02:42 50.23919 172.55803 29185 ft 546 kts 50°
2026-05-05 02:42 50.27840 172.65994 29185 ft 551 kts 51°
2026-05-05 02:43 50.31724 172.76143 29177 ft 544 kts 50°
2026-05-05 02:43 50.35584 172.86259 29174 ft 542 kts 50°
2026-05-05 02:44 50.39472 172.96487 29183 ft 544 kts 51°
2026-05-05 02:44 50.43277 173.06545 29191 ft 540 kts 50°
2026-05-05 02:45 50.47073 173.16612 29195 ft 538 kts 50°
2026-05-05 02:45 50.50853 173.26678 29204 ft 536 kts 50°
2026-05-05 02:46 50.54636 173.36786 29199 ft 537 kts 50°
2026-05-05 02:46 50.58343 173.46744 29205 ft 529 kts 50°
2026-05-05 02:47 50.62078 173.56793 29213 ft 534 kts 50°
2026-05-05 02:47 50.65762 173.66762 29209 ft 531 kts 51°
2026-05-05 02:48 50.69439 173.76747 29200 ft 528 kts 51°
2026-05-05 02:48 50.73126 173.86797 29206 ft 525 kts 51°
2026-05-05 02:49 50.76768 173.96755 29210 ft 528 kts 51°
2026-05-05 02:49 50.80220 174.06249 29209 ft 520 kts 50°
2026-05-05 02:50 50.83828 174.16182 29215 ft 529 kts 50°
2026-05-05 02:50 50.87524 174.26387 29218 ft 545 kts 51°
2026-05-05 02:51 50.91277 174.36827 29215 ft 546 kts 51°
2026-05-05 02:51 50.94994 174.47205 29211 ft 548 kts 50°
2026-05-05 02:52 50.98712 174.57632 29226 ft 544 kts 50°
2026-05-05 02:52 51.02417 174.68060 29211 ft 543 kts 51°
2026-05-05 02:53 51.06117 174.78508 29212 ft 547 kts 51°
2026-05-05 02:53 51.09793 174.88943 29216 ft 542 kts 51°
2026-05-05 02:54 51.13461 174.99390 29231 ft 544 kts 51°
2026-05-05 02:54 51.17085 175.09763 29233 ft 538 kts 51°
2026-05-05 02:55 51.20712 175.20174 29238 ft 538 kts 51°
2026-05-05 02:55 51.24358 175.30687 29238 ft 538 kts 51°
2026-05-05 02:56 51.28006 175.40907 29244 ft 532 kts 49°
2026-05-05 02:56 51.31807 175.51102 29247 ft 536 kts 49°
2026-05-05 02:57 51.35566 175.61263 29254 ft 531 kts 49°
2026-05-05 02:57 51.39302 175.71403 29245 ft 534 kts 50°
2026-05-05 02:58 51.43066 175.81686 29253 ft 528 kts 50°
2026-05-05 02:58 51.46772 175.91850 29255 ft 530 kts 50°
2026-05-05 02:59 51.50452 176.01991 29264 ft 527 kts 50°
2026-05-05 02:59 51.54115 176.12122 29268 ft 526 kts 50°
2026-05-05 03:00 51.57792 176.22330 29274 ft 530 kts 51°
2026-05-05 03:00 51.61432 176.32489 29269 ft 527 kts 51°
2026-05-05 03:01 51.65080 176.42697 29277 ft 531 kts 51°
2026-05-05 03:01 51.68727 176.52963 29282 ft 525 kts 51°
2026-05-05 03:02 51.72379 176.63261 29294 ft 530 kts 52°
2026-05-05 03:02 51.75982 176.73482 29266 ft 527 kts 53°
2026-05-05 03:03 51.79617 176.83827 29255 ft 526 kts 53°
2026-05-05 03:03 51.83226 176.94142 29303 ft 529 kts 54°
2026-05-05 03:04 51.86819 177.04454 29286 ft 530 kts 55°
2026-05-05 03:04 51.90403 177.14772 29279 ft 528 kts 55°
2026-05-05 03:05 51.93964 177.25021 29278 ft 523 kts 55°
2026-05-05 03:05 51.97539 177.35350 29276 ft 527 kts 55°
2026-05-05 03:06 52.01112 177.45718 29267 ft 524 kts 55°
2026-05-05 03:06 52.04657 177.56050 29253 ft 524 kts 56°
2026-05-05 03:07 52.08179 177.66354 29273 ft 524 kts 57°
2026-05-05 03:07 52.11698 177.76695 29278 ft 521 kts 57°
2026-05-05 03:08 52.15193 177.87009 29272 ft 522 kts 57°
2026-05-05 03:08 52.18653 177.97263 29287 ft 518 kts 57°
2026-05-05 03:09 52.22103 178.07524 29277 ft 519 kts 57°
2026-05-05 03:09 52.25559 178.17850 29274 ft 519 kts 57°
2026-05-05 03:10 52.29022 178.28239 29280 ft 517 kts 57°
2026-05-05 03:10 52.32459 178.38594 29285 ft 518 kts 57°
2026-05-05 03:11 52.35883 178.48952 29281 ft 518 kts 57°
2026-05-05 03:11 52.39278 178.59267 29287 ft 516 kts 57°
2026-05-05 03:12 52.42678 178.69636 29291 ft 518 kts 58°
2026-05-05 03:12 52.46052 178.79977 29279 ft 517 kts 58°
2026-05-05 03:13 52.49424 178.90350 29297 ft 516 kts 58°
2026-05-05 03:13 52.52776 179.00708 29290 ft 517 kts 58°
2026-05-05 03:14 52.56126 179.11101 29293 ft 516 kts 58°
2026-05-05 03:14 52.59468 179.21516 29294 ft 516 kts 58°
2026-05-05 03:15 52.62790 179.31912 29309 ft 515 kts 58°
2026-05-05 03:15 52.66093 179.42293 29315 ft 514 kts 58°
2026-05-05 03:16 52.69384 179.52678 29307 ft 513 kts 58°
2026-05-05 03:16 52.72705 179.63203 29309 ft 514 kts 58°
2026-05-05 03:17 52.75967 179.73587 29320 ft 513 kts 58°
2026-05-05 03:17 52.79228 179.84013 29322 ft 512 kts 58°
2026-05-05 03:18 52.82488 179.94479 29320 ft 513 kts 58°
2026-05-05 03:18 52.85735 -179.95050 29313 ft 514 kts 58°
2026-05-05 03:19 52.90610 -179.79244 29315 ft 513 kts 58°
2026-05-05 03:19 52.93835 -179.68727 29313 ft 512 kts 58°
2026-05-05 03:20 52.97044 -179.58223 29314 ft 511 kts 58°
2026-05-05 03:20 53.00232 -179.47737 29319 ft 511 kts 59°
2026-05-05 03:21 53.03418 -179.37215 29315 ft 511 kts 59°
2026-05-05 03:21 53.06597 -179.26668 29318 ft 511 kts 59°
2026-05-05 03:22 53.09769 -179.16095 29314 ft 510 kts 59°
2026-05-05 03:22 53.12905 -179.05600 29325 ft 509 kts 59°
2026-05-05 03:23 53.16051 -178.95021 29330 ft 509 kts 59°
2026-05-05 03:23 53.19188 -178.84428 29330 ft 510 kts 59°
2026-05-05 03:24 53.22315 -178.73822 29319 ft 510 kts 59°
2026-05-05 03:24 53.25422 -178.63238 29315 ft 509 kts 59°
2026-05-05 03:25 53.28519 -178.52637 29313 ft 508 kts 59°
2026-05-05 03:25 53.31615 -178.41992 29311 ft 509 kts 60°
2026-05-05 03:26 53.34687 -178.31384 29315 ft 509 kts 60°
2026-05-05 03:26 53.37750 -178.20758 29313 ft 508 kts 60°
2026-05-05 03:27 53.40807 -178.10103 29311 ft 508 kts 60°
2026-05-05 03:27 53.43841 -177.99483 29312 ft 508 kts 60°
2026-05-05 03:28 53.46874 -177.88817 29311 ft 507 kts 60°
2026-05-05 03:28 53.49891 -177.78160 29310 ft 508 kts 60°
2026-05-05 03:29 53.52908 -177.67452 29308 ft 508 kts 60°
2026-05-05 03:29 53.55928 -177.56683 29310 ft 507 kts 60°
2026-05-05 03:30 53.58914 -177.45990 29306 ft 506 kts 60°
2026-05-05 03:30 53.61904 -177.35228 29306 ft 506 kts 60°
2026-05-05 03:31 53.64867 -177.24518 29309 ft 506 kts 61°
2026-05-05 03:31 53.67806 -177.13812 29304 ft 506 kts 61°
2026-05-05 03:32 53.70752 -177.03027 29293 ft 506 kts 61°
2026-05-05 03:32 53.73683 -176.92248 29296 ft 506 kts 61°
2026-05-05 03:33 53.76591 -176.81506 29298 ft 506 kts 61°
2026-05-05 03:33 53.79509 -176.70676 29292 ft 506 kts 61°
2026-05-05 03:34 53.82390 -176.59930 29291 ft 505 kts 61°
2026-05-05 03:34 53.85269 -176.49144 29297 ft 505 kts 61°
2026-05-05 03:35 53.88134 -176.38358 29295 ft 505 kts 61°
2026-05-05 03:35 53.91006 -176.27495 29290 ft 505 kts 62°
2026-05-05 03:36 53.93867 -176.16620 29297 ft 505 kts 62°
2026-05-05 03:36 53.96711 -176.05757 29291 ft 504 kts 62°
2026-05-05 03:37 53.99526 -175.94955 29290 ft 504 kts 62°
2026-05-05 03:37 54.02362 -175.84016 29287 ft 504 kts 62°
2026-05-05 03:38 54.05168 -175.73145 29288 ft 504 kts 62°
2026-05-05 03:38 54.07970 -175.62236 29284 ft 503 kts 62°
2026-05-05 03:39 54.10755 -175.51335 29291 ft 503 kts 61°
2026-05-05 03:39 54.13532 -175.40418 29293 ft 503 kts 62°
2026-05-05 03:40 54.16301 -175.29474 29289 ft 503 kts 62°
2026-05-05 03:40 54.19051 -175.18556 29289 ft 503 kts 62°
2026-05-05 03:41 54.21789 -175.07631 29287 ft 502 kts 62°
2026-05-05 03:41 54.24503 -174.96747 29290 ft 502 kts 62°
2026-05-05 03:42 54.27215 -174.85815 29290 ft 500 kts 62°
2026-05-05 03:42 54.29932 -174.74812 29287 ft 500 kts 62°
2026-05-05 03:43 54.32618 -174.63878 29283 ft 500 kts 62°
2026-05-05 03:43 54.35293 -174.52934 29280 ft 499 kts 62°
2026-05-05 03:44 54.37969 -174.41933 29278 ft 499 kts 62°
2026-05-05 03:44 54.40630 -174.30936 29276 ft 499 kts 63°
2026-05-05 03:45 54.43261 -174.20012 29275 ft 498 kts 63°
2026-05-05 03:45 54.45902 -174.08989 29308 ft 501 kts 63°
2026-05-05 03:46 54.47212 -174.03500 29610 ft 501 kts 63°
2026-05-05 03:46 54.48531 -173.97955 30101 ft 497 kts 63°
2026-05-05 03:46 54.49820 -173.92525 30583 ft 495 kts 62°
2026-05-05 03:46 54.51122 -173.87024 31013 ft 494 kts 62°
2026-05-05 03:47 54.52404 -173.81599 31365 ft 494 kts 63°
2026-05-05 03:47 54.53687 -173.76155 31678 ft 495 kts 63°
2026-05-05 03:47 54.54969 -173.70702 32001 ft 495 kts 63°
2026-05-05 03:47 54.56285 -173.65091 32326 ft 496 kts 63°
2026-05-05 03:48 54.57574 -173.59578 32635 ft 495 kts 63°
2026-05-05 03:48 54.58876 -173.53993 32899 ft 496 kts 63°
2026-05-05 03:48 54.60171 -173.48425 33133 ft 496 kts 63°
2026-05-05 03:48 54.61467 -173.42845 33242 ft 497 kts 63°
2026-05-05 03:49 54.64027 -173.31764 33253 ft 496 kts 64°
2026-05-05 03:49 54.66592 -173.20604 33250 ft 496 kts 64°
2026-05-05 03:50 54.69131 -173.09502 33247 ft 496 kts 64°
2026-05-05 03:50 54.71656 -172.98396 33245 ft 497 kts 64°
2026-05-05 03:51 54.74160 -172.87332 33249 ft 496 kts 64°
2026-05-05 03:51 54.76661 -172.76221 33243 ft 497 kts 64°
2026-05-05 03:52 54.79149 -172.65108 33246 ft 496 kts 64°
2026-05-05 03:52 54.81635 -172.53943 33233 ft 495 kts 64°
2026-05-05 03:53 54.84093 -172.42847 33236 ft 495 kts 64°
2026-05-05 03:53 54.86558 -172.31662 33229 ft 495 kts 65°
2026-05-05 03:54 54.88997 -172.20534 33238 ft 497 kts 65°
2026-05-05 03:54 54.91452 -172.09271 33231 ft 496 kts 65°
2026-05-05 03:55 54.93868 -171.98129 33221 ft 496 kts 65°
2026-05-05 03:55 54.96287 -171.86905 33226 ft 496 kts 65°
2026-05-05 03:56 54.98687 -171.75716 33216 ft 495 kts 65°
2026-05-05 03:56 55.01069 -171.64549 33219 ft 496 kts 65°
2026-05-05 03:57 55.03445 -171.53343 33210 ft 495 kts 65°
2026-05-05 03:57 55.05822 -171.42076 33207 ft 495 kts 65°
2026-05-05 03:58 55.08200 -171.30740 33204 ft 496 kts 66°
2026-05-05 03:58 55.10548 -171.19482 33204 ft 494 kts 66°
2026-05-05 03:59 55.12880 -171.08244 33207 ft 495 kts 66°
2026-05-05 03:59 55.15207 -170.96959 33202 ft 496 kts 66°
2026-05-05 04:00 55.16915 -170.85263 33179 ft 503 kts 79°
2026-05-05 04:00 55.17603 -170.73085 33202 ft 504 kts 81°
2026-05-05 04:01 55.18191 -170.60963 33194 ft 503 kts 81°
2026-05-05 04:01 55.18740 -170.48837 33192 ft 504 kts 81°
2026-05-05 04:02 55.19267 -170.36606 33191 ft 503 kts 81°
2026-05-05 04:02 55.19771 -170.24408 33183 ft 504 kts 82°
2026-05-05 04:03 55.20255 -170.12286 33178 ft 503 kts 82°
2026-05-05 04:03 55.20728 -170.00056 33205 ft 504 kts 82°
2026-05-05 04:04 55.21186 -169.87852 33186 ft 502 kts 83°
2026-05-05 04:04 55.21629 -169.75723 33191 ft 503 kts 83°
2026-05-05 04:05 55.22061 -169.63541 33183 ft 502 kts 83°
2026-05-05 04:05 55.22478 -169.51431 33182 ft 502 kts 83°
2026-05-05 04:06 55.22887 -169.39206 33161 ft 502 kts 83°
2026-05-05 04:06 55.23280 -169.27089 33165 ft 503 kts 84°
2026-05-05 04:07 55.23663 -169.14888 33152 ft 502 kts 84°
2026-05-05 04:07 55.24034 -169.02670 33145 ft 502 kts 84°
2026-05-05 04:08 55.24393 -168.90486 33157 ft 502 kts 84°
2026-05-05 04:08 55.24737 -168.78368 33140 ft 502 kts 84°
2026-05-05 04:09 55.25069 -168.66232 33142 ft 502 kts 85°
2026-05-05 04:09 55.25392 -168.54019 33133 ft 502 kts 85°
2026-05-05 04:10 55.25353 -168.41849 33132 ft 505 kts 95°
2026-05-05 04:10 55.24652 -168.35910 33133 ft 493 kts 104°
2026-05-05 04:10 55.23476 -168.30386 33072 ft 481 kts 113°
2026-05-05 04:11 55.21886 -168.25311 32618 ft 476 kts 122°
2026-05-05 04:11 55.19934 -168.20653 32021 ft 472 kts 126°
2026-05-05 04:11 55.17919 -168.16222 31471 ft 465 kts 130°
2026-05-05 04:11 55.15653 -168.12276 30932 ft 458 kts 135°
2026-05-05 04:12 55.13326 -168.08589 30088 ft 454 kts 136°
2026-05-05 04:12 55.10974 -168.04884 28813 ft 457 kts 135°
2026-05-05 04:12 55.08626 -168.01192 27406 ft 462 kts 135°
2026-05-05 04:12 55.06260 -167.97476 26250 ft 460 kts 135°
2026-05-05 04:13 55.03910 -167.93796 25393 ft 452 kts 135°
2026-05-05 04:13 55.01604 -167.90192 24582 ft 444 kts 135°
2026-05-05 04:13 54.99304 -167.86601 23678 ft 438 kts 135°
2026-05-05 04:13 54.97058 -167.83098 22706 ft 434 kts 135°
2026-05-05 04:14 54.94825 -167.79622 21463 ft 437 kts 135°
2026-05-05 04:14 54.92581 -167.76131 20247 ft 438 kts 135°
2026-05-05 04:14 54.90329 -167.72636 19233 ft 434 kts 135°
2026-05-05 04:14 54.88116 -167.69206 18297 ft 428 kts 135°
2026-05-05 04:15 54.85906 -167.65790 17349 ft 423 kts 135°
2026-05-05 04:15 54.83745 -167.62451 16401 ft 419 kts 135°
2026-05-05 04:15 54.81582 -167.59116 15433 ft 415 kts 135°
2026-05-05 04:15 54.79437 -167.55812 14597 ft 413 kts 135°
2026-05-05 04:16 54.77320 -167.52556 14026 ft 410 kts 135°
2026-05-05 04:16 54.75214 -167.49319 13493 ft 407 kts 135°
2026-05-05 04:16 54.73092 -167.46066 12929 ft 404 kts 135°
2026-05-05 04:16 54.71008 -167.42876 12397 ft 401 kts 135°
2026-05-05 04:17 54.68948 -167.39725 11863 ft 398 kts 135°
2026-05-05 04:17 54.66875 -167.36559 11308 ft 395 kts 135°
2026-05-05 04:17 54.64852 -167.33475 10758 ft 393 kts 135°
2026-05-05 04:17 54.62801 -167.30350 10207 ft 390 kts 135°
2026-05-05 04:18 54.60790 -167.27292 9750 ft 385 kts 135°
2026-05-05 04:18 54.58790 -167.24255 9430 ft 377 kts 135°
2026-05-05 04:18 54.56855 -167.21323 8996 ft 373 kts 135°
2026-05-05 04:18 54.54926 -167.18399 8497 ft 371 kts 135°
2026-05-05 04:19 54.53005 -167.15494 7996 ft 368 kts 135°
2026-05-05 04:19 54.51073 -167.12575 7497 ft 366 kts 135°
2026-05-05 04:19 54.49174 -167.09709 7002 ft 364 kts 135°
2026-05-05 04:19 54.47299 -167.06883 6543 ft 361 kts 135°
2026-05-05 04:20 54.45410 -167.04039 6100 ft 357 kts 135°
2026-05-05 04:20 54.43571 -167.01276 5653 ft 354 kts 135°
2026-05-05 04:20 54.41715 -166.98489 5182 ft 352 kts 135°
2026-05-05 04:20 54.39885 -166.95746 4752 ft 348 kts 135°
2026-05-05 04:21 54.38081 -166.93042 4273 ft 346 kts 135°
2026-05-05 04:21 54.36296 -166.90373 3864 ft 342 kts 135°
2026-05-05 04:21 54.34492 -166.87677 3430 ft 339 kts 135°
2026-05-05 04:21 54.32725 -166.85040 2943 ft 338 kts 135°
2026-05-05 04:22 54.30973 -166.82426 2501 ft 335 kts 135°
2026-05-05 04:22 54.29262 -166.79881 2431 ft 321 kts 135°
2026-05-05 04:22 54.27607 -166.77426 2420 ft 305 kts 135°
2026-05-05 04:22 54.26058 -166.75128 2414 ft 290 kts 135°
2026-05-05 04:23 54.24564 -166.72914 2404 ft 276 kts 135°
2026-05-05 04:23 54.23151 -166.70819 2392 ft 263 kts 135°
2026-05-05 04:23 54.21813 -166.68839 2382 ft 249 kts 134°
2026-05-05 04:23 54.20542 -166.66957 2386 ft 234 kts 134°
2026-05-05 04:24 54.19356 -166.65204 2362 ft 219 kts 134°
2026-05-05 04:24 54.18250 -166.63568 2341 ft 202 kts 133°
2026-05-05 04:24 54.17226 -166.62051 2292 ft 187 kts 132°
2026-05-05 04:25 54.14863 -166.60290 1619 ft 195 kts 170°
2026-05-05 04:25 54.13560 -166.60025 1626 ft 185 kts 171°
2026-05-05 04:25 54.12234 -166.59760 1685 ft 195 kts 171°
2026-05-05 04:25 54.10907 -166.59488 1577 ft 188 kts 171°
2026-05-05 04:26 54.09627 -166.59225 1564 ft 192 kts 171°
2026-05-05 04:26 54.08291 -166.58949 1546 ft 192 kts 172°
2026-05-05 04:26 54.06964 -166.58679 1547 ft 192 kts 172°
2026-05-05 04:26 54.05640 -166.58409 1546 ft 192 kts 172°
2026-05-05 04:27 54.04296 -166.58134 1548 ft 193 kts 172°
2026-05-05 04:27 54.02994 -166.57869 1549 ft 186 kts 172°
2026-05-05 04:27 54.01701 -166.57613 1316 ft 182 kts 173°
2026-05-05 04:27 54.00494 -166.57515 1114 ft 172 kts 179°
2026-05-05 04:28 53.99294 -166.57500 913 ft 171 kts 180°
2026-05-05 04:28 53.98117 -166.57553 846 ft 168 kts 182°
2026-05-05 04:28 53.96938 -166.57657 884 ft 170 kts 184°
2026-05-05 04:28 53.95761 -166.57787 925 ft 170 kts 182°
2026-05-05 04:29 53.94567 -166.57848 957 ft 171 kts 181°
2026-05-05 04:29 53.93388 -166.57796 959 ft 172 kts 172°
2026-05-05 04:29 53.92202 -166.57324 712 ft 176 kts 160°
2026-05-05 04:29 53.91127 -166.56444 246 ft 169 kts 141°
2026-05-05 04:30 53.90293 -166.55183 14 ft 155 kts 129°
2026-05-05 04:30 53.89681 -166.54140 31 ft 67 kts 134°
2026-05-05 04:30 53.89569 -166.53952 39 ft 4 kts 137°
2026-05-05 04:30 53.89559 -166.53938 40 ft 0 kts 139°
2026-05-05 04:31 53.89540 -166.53928 41 ft 0 kts 185°
2026-05-05 04:31 53.89539 -166.53928 41 ft 0 kts 187°
2026-05-05 04:31 53.89534 -166.53983 39 ft 14 kts 291°
2026-05-05 04:32 53.89566 -166.54156 30 ft 15 kts 276°
2026-05-05 04:32 53.89570 -166.54277 23 ft 0 kts 269°